Location: Newark
(34.9500°N, 139.9667°E)
Time: 17:26:08
(UTC+00:00)

Vanguard 1 Rocket - Pass Details

Date: 15 December 2019
Orbit: 650 x 4226 km, 34.3° (Epoch: 19 January)

Event Time Altitude Azimuth Distance (km) Brightness Sun altitude
Rises 13:25:31 0° 273° (W) 7,411 12.3 -70.9°
Reaches altitude 10° 13:31:16 10° 274° (W) 5,864 11.6 -71.8°
Enters shadow 13:35:21 19° 274° (W) 4,695 11.0 -72.5°
Maximum altitude 13:47:01 85° 188° (S) 1,746 - -74.3°
Drops below altitude 10° 13:54:40 10° 101° (E) 3,054 - -75.4°
Sets 13:56:45 0° 101° (E) 3,761 - -75.6°
